Flag for Canada Weather past 2 weeks in Saguenay, Quebec, Canada

Now
-9 °F

Frigid.


Feels Like: -9 °F
Forecast: -19 / 16 °F
Wind: 2 mph from North

Location: Jonquiere Airport

Current Time: Mar 6, 2015 at 10:10:48 AM

Latest Report: Mar 6, 2015 at 9:00 AM


Visibility: N/A

Pressure: 30.32 "Hg

Humidity: 77%

Dew point: -14 °F

Location of SaguenayLocation

Historic Weather in Saguenay — Graph

°F

Saguenay temperature yesterday

Maximum temperature yesterday: 10 °F (at 12:00 AM)
Minimum temperature yesterday: -10 °F (at 11:00 PM)
Average temperature yesterday: -2 °F

Past Weeks' High & Low Weather Summary

 TemperatureHumidityPressure
High28 °F (Mar 4, 3:00 PM)96% (Feb 23, 12:00 AM)30.55 "Hg (Feb 23, 12:00 AM)
Low-26 °F (Feb 24, 6:00 AM)31% (Mar 3, 4:00 PM)29.48 "Hg (Mar 4, 4:00 AM)
Average5 °F67%30.06 "Hg
* Reported Feb 19 8:00 AM — Mar 6 8:00 AM, Saguenay, Weather by CustomWeather, © 2015

Note: Actual official high and low records may vary slightly from our data, if they occured in-between our weather recording intervals... More about our weather records

Advertising

Saguenay weather history for previous 24 hours

 ConditionsComfort  
Time TempWeatherWind HumidityBarometerVisibility
8:00 AM
Fri, Mar 6
-15 °FExtremely cold.5 mph75%30.33 "HgN/A
7:00 AM-19 °FExtremely cold.3 mph72%30.34 "HgN/A
6:00 AM-20 °FExtremely cold.1 mph72%30.34 "HgN/A
5:00 AM-19 °FExtremely cold.1 mph73%30.34 "HgN/A
4:00 AM-18 °FExtremely cold.No wind74%30.33 "HgN/A
3:00 AM-17 °FExtremely cold.No wind74%30.32 "HgN/A
2:00 AM-16 °FExtremely cold.3 mph76%30.33 "HgN/A
1:00 AM-14 °FExtremely cold.No wind72%30.33 "HgN/A
12:00 AM-13 °FExtremely cold.1 mph77%30.33 "HgN/A
11:00 PM
Thu, Mar 5
-10 °FExtremely cold.1 mph70%30.32 "HgN/A
10:00 PM-7 °FFrigid.5 mph55%30.32 "HgN/A
9:00 PM-8 °FFrigid.2 mph57%30.32 "HgN/A
8:00 PM-9 °FFrigid.7 mph62%30.31 "HgN/A
7:00 PM-5 °FFrigid.3 mph56%30.29 "HgN/A
6:00 PM0 °FFrigid.3 mph46%30.27 "HgN/A
5:00 PM2 °FFrigid.8 mph42%30.25 "HgN/A
4:00 PM2 °FFrigid.9 mph45%30.25 "HgN/A
3:00 PM2 °FFrigid.10 mph47%30.24 "HgN/A
2:00 PM-1 °FFrigid.12 mph46%30.23 "HgN/A
1:00 PM-2 °FFrigid.12 mph49%30.24 "HgN/A
12:00 PM-4 °FFrigid.16 mph52%30.24 "HgN/A
11:00 AM-6 °FFrigid.14 mph54%30.24 "HgN/A
10:00 AM-6 °FFrigid.14 mph57%30.23 "HgN/A
Weather by CustomWeather, © 2015

See weather overviewHow to use our weather pages